Showing default

TOMORROW-S8, 66308

Orbit data source: Space-Track

TOMORROW-S8, 66308 is a payload satellite owned by Tomorrow.io (US) in LEO that was launched on Sun, 02 Nov 2025 UTC via an FALCON 9 launch vehicle from the Air Force Eastern Test Range (AFETR). Payload-class satellites include a variety of spacecraft equipped with specific instruments for various scientific and technological missions. These include communications satellites like Starlink; space stations such as the ISS; scientific satellites like the Hubble; Earth observation satellites from companies like Planet Labs, Umbra, and HawkEye 360; GPS; miniature CubeSats for education and research; and military/defense satellites.

Loading next visibility...
Identifier
66308, 2025-248R
Orbit
LEO
Country
Flag of USUS
Related business
Manufacturer
Blue Canyon
Mission
Operational Commercial Weather
Bus & Motor
CUBESAT 6U, Unknown motor
Mass
12 kg wet, 12 kg dry
Launch date (UTC)
2025-11-02 (8 months ago)
Launch vehicle
FALCON 9
Launch site
Air Force Eastern Test Range (AFETR)
Object type
Payload
Rocket body
Debris
Shape & HBR
Box + 2 Pan, 1.0 m
Radar Cross Section
0.138 m², Medium (>0.1 m² and < 1m²)

Expand to show TLE details & history
Last TLE update: 16 hours ago

TLE from 16 hours ago
0 TOMORROW-S8
1 66308U 25248R   26171.19147469  .00003417  00000-0  16614-3 0  9998
2 66308  45.3971 105.1070 0003974  33.6380 326.4758 15.20527952 34970
Epoch: 2026-06-20T04:35Z
TLE epoch observation values (Epoch: 2026-06-20T04:35:43.413Z)
Latitude
-0.00002°
Longitude
127.76646°
Altitude
502.01 km
Speed
7.616 km/s
True Right ascension
07h 00m 25s
True Declination
0° 00' 00"
Sunlit
Object was in daylight at epoch
Visualization orbit readout
Latitude
Unknown
Longitude
Unknown
Altitude
Unknown
Speed
Unknown
Apparent Right ascension
Unknown
Apparent Declination
Unknown
Sunlit
N/A
Visualization observer readout
Local Sidereal Time
07:16:49
Azimuth
Unknown
Elevation
Unknown
Doppler factor
Unknown
Orbital elements
Apogee altitude
508.52 km
Perigee altitude
503.049 km
Semi-major axis
6,883.922 km
Eccentricity
0.0004
Inclination
45.3971°
RAAN
105.107°
Arg. of periapsis
33.638°
True anomaly
326.45064°
Mean anomaly
326.4758°
Eccentric anomaly
326.46322°
Mean motion
3.80005 °/min
Orbital period
94.74 mins
BSTAR
0.00016614
Loading maneuver chart data...
Computing Atmospheric mass density...
Loading historical data...
Loading historical data...
Loading historical data...
Loading historical data...
Loading historical data...
Loading historical data...
Loading historical data...

Documentation

Showing up to 5 results
|